• In Belgium
  • List of Countries
  • For 7 days
  • Water Temperature
  • Satellite Maps
  • Weather Map
  • Weather Widgets
  • user-avatar
    Login

    Hourly Weather Rostek

    Today, 21 October, Sunday

    Time Temperature Precipitation Wind Pressure Humidity
    00:00 +6°C° 0 mm 1 mps 751 mmHg 91%
    01:00 +6°C° 0 mm 1 mps 751 mmHg 92%
    02:00 +5°C° 0 mm 1 mps 752 mmHg 92%
    03:00 +5°C° 0 mm 1 mps 752 mmHg 92%
    04:00 +5°C° 0 mm 1 mps 752 mmHg 93%
    05:00 +5°C° 0 mm 1 mps 752 mmHg 93%
    06:00 +5°C° 0 mm 1 mps 752 mmHg 93%
    07:00 +5°C° 0 mm 1 mps 753 mmHg 93%
    08:00 +7°C° 0 mm 1 mps 753 mmHg 86%
    09:00 +9°C° 0 mm 1 mps 753 mmHg 78%
    10:00 +9°C° 0 mm 2 mps 754 mmHg 71%
    11:00 +10°C° 0 mm 2 mps 754 mmHg 68%
    12:00 +12°C° 0 mm 2 mps 753 mmHg 65%
    13:00 +12°C° 0 mm 2 mps 753 mmHg 62%
    14:00 +12°C° 0 mm 2 mps 753 mmHg 64%
    15:00 +11°C° 0 mm 1 mps 753 mmHg 67%
    16:00 +10°C° 0 mm 1 mps 753 mmHg 70%
    17:00 +9°C° 0 mm 1 mps 753 mmHg 74%
    18:00 +8°C° 0 mm 1 mps 753 mmHg 78%
    19:00 +7°C° 0 mm 1 mps 753 mmHg 83%
    20:00 +6°C° 0 mm 2 mps 753 mmHg 84%
    21:00 +6°C° 0 mm 2 mps 753 mmHg 86%
    22:00 +5°C° 0 mm 2 mps 753 mmHg 87%
    23:00 +5°C° 0 mm 2 mps 753 mmHg 88%

    Tomorrow, 22 October, Monday

    Time Temperature Precipitation Wind Pressure Humidity
    00:00 +4°C° 0 mm 3 mps 753 mmHg 89%
    01:00 +4°C° 0 mm 3 mps 752 mmHg 90%
    02:00 +4°C° 0 mm 3 mps 752 mmHg 91%
    03:00 +4°C° 0 mm 3 mps 752 mmHg 91%
    04:00 +4°C° 0 mm 3 mps 751 mmHg 92%
    05:00 +4°C° 0 mm 3 mps 751 mmHg 92%
    06:00 +4°C° 0 mm 3 mps 751 mmHg 92%
    07:00 +4°C° 0 mm 4 mps 751 mmHg 91%
    08:00 +6°C° 0 mm 4 mps 751 mmHg 84%
    09:00 +7°C° 0 mm 4 mps 750 mmHg 77%
    10:00 +9°C° 0 mm 5 mps 750 mmHg 70%
    11:00 +9°C° 0 mm 5 mps 749 mmHg 68%
    12:00 +10°C° 0 mm 5 mps 749 mmHg 67%
    13:00 +10°C° 0 mm 5 mps 748 mmHg 65%
    14:00 +10°C° 0.2 mm 5 mps 748 mmHg 71%
    15:00 +9°C° 0.2 mm 5 mps 748 mmHg 77%
    16:00 +8°C° 0.2 mm 5 mps 748 mmHg 83%
    17:00 +8°C° 0.2 mm 4 mps 748 mmHg 84%
    18:00 +7°C° 0.2 mm 4 mps 748 mmHg 84%
    19:00 +7°C° 0.2 mm 4 mps 748 mmHg 85%
    20:00 +6°C° 0 mm 4 mps 748 mmHg 85%
    21:00 +5°C° 0 mm 3 mps 748 mmHg 86%
    22:00 +4°C° 0 mm 3 mps 748 mmHg 86%
    23:00 +4°C° 0 mm 3 mps 748 mmHg 86%

    Day after tomorrow, 23 October, Tuesday

    Time Temperature Precipitation Wind Pressure Humidity
    00:00 +3°C° 0 mm 3 mps 748 mmHg 85%
    01:00 +3°C° 0 mm 3 mps 748 mmHg 84%
    02:00 +3°C° 0 mm 3 mps 747 mmHg 84%
    03:00 +3°C° 0 mm 3 mps 747 mmHg 84%
    04:00 +3°C° 0 mm 3 mps 746 mmHg 84%
    05:00 +3°C° 0 mm 4 mps 746 mmHg 84%
    06:00 +3°C° 0 mm 4 mps 745 mmHg 85%
    07:00 +4°C° 0 mm 4 mps 745 mmHg 85%
    08:00 +3°C° 0 mm 5 mps 744 mmHg 80%
    09:00 +4°C° 0 mm 6 mps 743 mmHg 76%
    10:00 +5°C° 0 mm 7 mps 742 mmHg 71%
    11:00 +5°C° 0.4 mm 8 mps 740 mmHg 72%
    12:00 +5°C° 0.4 mm 9 mps 738 mmHg 72%
    13:00 +5°C° 0.4 mm 9 mps 737 mmHg 73%
    14:00 +5°C° 1.5 mm 10 mps 735 mmHg 76%
    15:00 +3°C° 1.5 mm 10 mps 733 mmHg 78%
    16:00 +3°C° 1.5 mm 10 mps 731 mmHg 81%
    17:00 +3°C° 1.4 mm 10 mps 729 mmHg 83%
    18:00 +5°C° 1.4 mm 9 mps 727 mmHg 85%
    19:00 +5°C° 1.4 mm 9 mps 726 mmHg 87%
    20:00 +5°C° 1.2 mm 8 mps 725 mmHg 87%
    21:00 +6°C° 1.2 mm 7 mps 724 mmHg 88%
    22:00 +7°C° 1.2 mm 6 mps 724 mmHg 88%
    23:00 +6°C° 0.4 mm 7 mps 724 mmHg 85%

    24 October, Wednesday

    Time Temperature Precipitation Wind Pressure Humidity
    00:00 +5°C° 0.4 mm 7 mps 724 mmHg 82%
    01:00 +5°C° 0.4 mm 8 mps 725 mmHg 80%
    02:00 +4°C° 0 mm 7 mps 725 mmHg 77%
    03:00 +3°C° 0 mm 7 mps 726 mmHg 74%
    04:00 +2°C° 0 mm 6 mps 727 mmHg 71%
    05:00 +2°C° 0 mm 6 mps 727 mmHg 71%
    06:00 +1°C° 0 mm 6 mps 728 mmHg 71%
    07:00 +1°C° 0 mm 6 mps 728 mmHg 71%
    08:00 +1°C° 0.2 mm 8 mps 728 mmHg 68%
    09:00 +2°C° 0.2 mm 9 mps 728 mmHg 66%
    10:00 +3°C° 0.2 mm 11 mps 728 mmHg 64%
    11:00 +3°C° 0.4 mm 11 mps 728 mmHg 65%
    12:00 +3°C° 0.4 mm 11 mps 728 mmHg 66%
    13:00 +3°C° 0.4 mm 12 mps 728 mmHg 67%
    14:00 +3°C° 0.5 mm 12 mps 729 mmHg 69%
    15:00 +3°C° 0.5 mm 11 mps 729 mmHg 70%
    16:00 +3°C° 0.5 mm 11 mps 730 mmHg 72%
    17:00 +3°C° 0.5 mm 11 mps 730 mmHg 72%
    18:00 +3°C° 0.5 mm 11 mps 731 mmHg 71%
    19:00 +3°C° 0.5 mm 10 mps 731 mmHg 71%
    20:00 +3°C° 0.1 mm 10 mps 732 mmHg 72%
    21:00 +2°C° 0.1 mm 9 mps 733 mmHg 73%
    22:00 +2°C° 0.1 mm 8 mps 733 mmHg 74%
    23:00 +2°C° 0.1 mm 8 mps 734 mmHg 75%

    25 October, Thursday

    Time Temperature Precipitation Wind Pressure Humidity
    00:00 +3°C° 0.1 mm 7 mps 734 mmHg 76%
    01:00 +3°C° 0.1 mm 7 mps 734 mmHg 77%
    02:00 +3°C° 0 mm 7 mps 735 mmHg 78%
    03:00 +2°C° 0 mm 6 mps 735 mmHg 79%
    04:00 +2°C° 0 mm 6 mps 735 mmHg 80%
    05:00 +2°C° 0 mm 5 mps 735 mmHg 81%
    06:00 +1°C° 0 mm 5 mps 735 mmHg 82%
    07:00 +1°C° 0 mm 4 mps 735 mmHg 83%
    08:00 +3°C° 0 mm 4 mps 735 mmHg 77%
    09:00 +3°C° 0 mm 5 mps 735 mmHg 71%
    10:00 +6°C° 0 mm 5 mps 735 mmHg 65%
    11:00 +6°C° 0 mm 5 mps 734 mmHg 66%
    12:00 +6°C° 0 mm 5 mps 734 mmHg 67%
    13:00 +6°C° 0 mm 4 mps 734 mmHg 68%
    14:00 +5°C° 0 mm 4 mps 734 mmHg 72%
    15:00 +5°C° 0 mm 3 mps 734 mmHg 76%
    16:00 +4°C° 0 mm 3 mps 734 mmHg 80%
    17:00 +4°C° 0 mm 3 mps 734 mmHg 84%
    18:00 +4°C° 0 mm 3 mps 734 mmHg 87%
    19:00 +5°C° 0 mm 2 mps 734 mmHg 90%
    20:00 +4°C° 0 mm 2 mps 734 mmHg 91%
    21:00 +3°C° 0 mm 3 mps 734 mmHg 93%
    22:00 +3°C° 0 mm 3 mps 734 mmHg 94%
    23:00 +3°C° 0 mm 3 mps 734 mmHg 94%

    26 October, Friday

    Time Temperature Precipitation Wind Pressure Humidity
    00:00 +3°C° 0 mm 3 mps 734 mmHg 93%
    01:00 +3°C° 0 mm 3 mps 734 mmHg 93%
    02:00 +3°C° 0 mm 3 mps 734 mmHg 92%
    03:00 +3°C° 0 mm 3 mps 734 mmHg 92%
    04:00 +3°C° 0 mm 3 mps 734 mmHg 92%
    05:00 +3°C° 0 mm 3 mps 734 mmHg 92%
    06:00 +4°C° 0 mm 3 mps 734 mmHg 92%
    07:00 +4°C° 0 mm 3 mps 734 mmHg 92%
    08:00 +5°C° 0.1 mm 3 mps 735 mmHg 87%
    09:00 +7°C° 0.1 mm 4 mps 735 mmHg 82%
    10:00 +8°C° 0.1 mm 4 mps 735 mmHg 77%
    11:00 +10°C° 0.1 mm 4 mps 735 mmHg 75%
    12:00 +9°C° 0.1 mm 5 mps 735 mmHg 73%
    13:00 +9°C° 0.1 mm 5 mps 734 mmHg 71%
    14:00 +9°C° 0.5 mm 5 mps 734 mmHg 77%
    15:00 +8°C° 0.5 mm 4 mps 734 mmHg 83%
    16:00 +7°C° 0.5 mm 4 mps 734 mmHg 90%
    17:00 +7°C° 0.4 mm 4 mps 734 mmHg 89%
    18:00 +7°C° 0.4 mm 5 mps 734 mmHg 88%
    19:00 +7°C° 0.4 mm 5 mps 733 mmHg 87%
    20:00 +7°C° 0.1 mm 6 mps 733 mmHg 87%
    21:00 +7°C° 0.1 mm 6 mps 733 mmHg 86%
    22:00 +7°C° 0.1 mm 6 mps 733 mmHg 86%
    23:00 +5°C° 0.1 mm 6 mps 733 mmHg 87%
    Show more